Flag for Japan Weather past 2 weeks in Yokosuka, Japan

Now
90 °F

Passing clouds.


Feels Like: 100 °F
Forecast: 78 / 88 °F
Wind: 5 mph from East

Location: Tokyo International Airport

Current Time: Jul 25, 2014 at 12:43:07 PM

Latest Report: Jul 25, 2014 at 12:00 PM


Visibility: N/A

Pressure: 29.83 "Hg

Humidity: 63%

Dew point: 75 °F

Location of YokosukaLocation

Historic Weather in Yokosuka — Graph

°F

Yokosuka temperature yesterday

Maximum temperature yesterday: 91 °F (at 4:00 PM)
Minimum temperature yesterday: 79 °F (at 1:30 AM)
Average temperature yesterday: 83 °F

Past Weeks' High & Low Weather Summary

 TemperatureHumidityPressure
High91 °F (Jul 24, 4:00 PM)100% (Jul 11, 4:00 AM)29.95 "Hg (Jul 11, 4:00 AM)
Low72 °F (Jul 19, 2:00 AM)52% (Jul 12, 3:00 PM)29.21 "Hg (Jul 11, 5:00 AM)
Average79 °F81%29.73 "Hg
* Reported Jul 10 11:00 AM — Jul 25 11:30 AM, Yokosuka, Weather by CustomWeather, © 2014

Note: Actual official high and low records may vary slightly from our data, if they occured in-between our weather recording intervals... More about our weather records

Advertising

Yokosuka weather history for previous 24 hours

 ConditionsComfort  
Time TempWeatherWind HumidityBarometerVisibility
11:30 AM
Jul 25
88 °FPassing clouds.5 mph70%29.83 "HgN/A
11:00 AM88 °FPassing clouds.6 mph70%29.83 "HgN/A
10:30 AM88 °FPassing clouds.3 mph70%29.83 "HgN/A
10:00 AM88 °FPassing clouds.6 mph75%29.83 "HgN/A
9:30 AM86 °FSunny.5 mph75%29.83 "Hg10 mi
9:00 AM86 °FSunny.5 mph70%29.83 "Hg10 mi
8:30 AM86 °FClear.6 mph75%29.83 "Hg5 mi
8:00 AM82 °FClear.1 mph79%29.83 "Hg5 mi
7:30 AM82 °FClear.2 mph79%29.80 "Hg5 mi
7:00 AM81 °FClear.2 mph84%29.80 "Hg5 mi
6:30 AM81 °FClear.1 mph84%29.80 "Hg5 mi
6:00 AM81 °FClear.2 mph79%29.80 "Hg5 mi
5:30 AM81 °FClear.2 mph79%29.80 "Hg5 mi
5:00 AM79 °FClear.3 mph84%29.80 "Hg5 mi
4:30 AM79 °FClear.5 mph79%29.77 "Hg5 mi
4:00 AM79 °FClear.5 mph84%29.77 "Hg5 mi
3:30 AM79 °FClear.6 mph84%29.77 "Hg5 mi
3:00 AM79 °FClear.7 mph84%29.74 "Hg4 mi
2:30 AM79 °FClear.8 mph84%29.74 "Hg4 mi
2:00 AM79 °FClear.8 mph89%29.74 "Hg4 mi
1:30 AM81 °FClear.9 mph84%29.77 "Hg4 mi
1:00 AM79 °FClear.8 mph89%29.77 "Hg4 mi
12:30 AM81 °FClear.7 mph84%29.74 "Hg4 mi
12:00 AM81 °FClear.7 mph84%29.74 "Hg4 mi
11:30 PM
Jul 24
81 °FClear.7 mph84%29.74 "Hg4 mi
11:00 PM81 °FClear.8 mph84%29.74 "Hg4 mi
10:30 PM81 °FPassing clouds.8 mph84%29.74 "Hg4 mi
10:00 PM81 °FPassing clouds.9 mph84%29.74 "Hg4 mi
9:30 PM81 °FSprinkles. Partly cloudy.9 mph84%29.74 "Hg4 mi
9:00 PM81 °FThunderstorms. Partly cloudy.7 mph84%29.74 "Hg4 mi
8:30 PM79 °FThunderstorms. Partly cloudy.14 mph94%29.74 "Hg3 mi
8:00 PM81 °FSprinkles. Partly cloudy.8 mph84%29.71 "Hg3 mi
7:49 PM81 °FStrong thunderstorms. Partly cloudy.10 mph89%29.74 "Hg2 mi
7:30 PM82 °FStrong thunderstorms. Partly cloudy.8 mph79%29.71 "Hg2 mi
7:00 PM84 °FThunderstorms. Partly cloudy.16 mph79%29.68 "Hg4 mi
6:30 PM84 °FThunderstorms. Broken clouds.13 mph79%29.65 "Hg4 mi
6:00 PM84 °FPartly sunny.8 mph79%29.65 "Hg4 mi
5:30 PM86 °FPartly sunny.8 mph75%29.65 "Hg4 mi
5:00 PM90 °FClear.8 mph63%29.62 "Hg5 mi
4:30 PM90 °FClear.7 mph67%29.62 "Hg5 mi
4:00 PM91 °FClear.7 mph67%29.62 "Hg6 mi
3:30 PM90 °FClear.6 mph67%29.62 "Hg6 mi
2:30 PM88 °FClear.3 mph66%29.62 "Hg6 mi
2:00 PM90 °FClear.3 mph67%29.62 "Hg5 mi
1:30 PM90 °FClear.5 mph67%29.62 "Hg5 mi
1:00 PM90 °FClear.6 mph67%29.59 "Hg5 mi
12:30 PM84 °FClear.5 mph79%29.59 "Hg4 mi
Weather by CustomWeather, © 2014

See weather overviewHow to use our weather pages